Find Local Weather

World > North America > United States > Florida

Boca Raton, Florida Regional Weather

Lat: 26.36N, Lon: 80.1W
Wx Zone: FLZ168
Warning FLW WEATHER ALERT - (More Info. Click Here) Warning
Feedback
Expires:201901171000;;482904
ASUS42 KTBW 170917
RWRFL 
FLORIDA REGIONAL WEATHER ROUNDUP
NATIONAL WEATHER SERVICE TAMPA BAY RUSKIN FL
400 AM EST THU JAN 17 2019

NOTE: "FAIR" INDICATES FEW OR NO CLOUDS BELOW 12,000 FEET WITH NO
SIGNIFICANT WEATHER AND/OR OBSTRUCTIONS TO VISIBILITY.


FLZ067-068-071>074-168-172>174-171000-
SOUTHEAST FLORIDA 
  
CITY           SKY/WX    TMP DP  RH WIND       PRES   REMARKS
W PALM BEACH   FAIR      53  52  96 NW5       30.18F                  
FT LAUDER-EXEC FAIR      55  54  96 NW5       30.17F                  
FT LAUDERDALE  FAIR      56  54  93 N8        30.17S                  
POMPANO BEACH  FAIR      55  52  89 NW7       30.17S                  
PEMBROKE PINES FAIR      54  51  90 NW5       30.19S                  
OPA LOCKA      FAIR      56  51  84 N7        30.18S                  
MIAMI          FAIR      57  54  89 N6        30.18S                  
WEST KENDALL   FAIR      55  51  86 N5        30.18R                  
HOMESTEAD      FAIR      55  51  87 NW7       30.16S                  

STATION/POSITION SKY/WX   TEMP    WIND        PRES    WAVE   SWELL
                          AIR SEA DIR/SP/G            HT/PER HT/PER
                          (F)     (DEG/KT/KT) (MB)    (FT/S) (FT/S)
PORT EVERGLADES            58     320/  9/ 12 1021.2F
VIRGINIA KEY               60 73  320/  6/ 10 1021.1S
LAKE WORTH                 56 74  330/  8/  9 1022.9F
FOWEY ROCKS                64 74  340/ 14/ 15 1021.9S
SETTLEMENT POINT           69      60/ 14/ 15 1021.5F

$$

  

SKY/WX - Weather  TMP - Temperature  DP - Dew Point  RH - Relative Humidity
WIND - Wind Direction/Speed PRES - Barometric Pressure